| time (UTC) | temp F | wind direction | speed knots | gust knots | rain 1hr in | rain 24hr in | rain mn in | humidity % | barometer mb |
| 20260906191027 | 85 | 45 | 0.9 | 0.9 | 0.00 | 0.00 | 0.00 | 100 | |
| 20260906190027 | 83 | 45 | 0.9 | 0.9 | 0.00 | 0.00 | 0.00 | 100 | |
| 20260906185027 | 84 | 315 | 0.0 | 0.9 | 0.00 | 0.00 | 0.00 | 100 | |
| 20260906184027 | 84 | 90 | 0.0 | 0.0 | 0.00 | 0.00 | 0.00 | 100 | |
| 20260906183027 | 85 | 135 | 0.0 | 0.0 | 0.00 | 0.00 | 0.00 | 100 | |
| 20260906182027 | 86 | 135 | 0.0 | 0.0 | 0.00 | 0.00 | 0.00 | 100 | |
| 20260906181027 | 86 | 180 | 0.0 | 1.7 | 0.00 | 0.00 | 0.00 | 100 | |
| 20260906180027 | 86 | 112 | 0.0 | 0.0 | 0.00 | 0.00 | 0.00 | 100 | |
| 20260906175027 | 87 | 135 | 0.0 | 0.9 | 0.00 | 0.00 | 0.00 | 100 | |
| 20260906174027 | 87 | 135 | 0.9 | 1.7 | 0.00 | 0.00 | 0.00 | 100 | |
| 20260906173027 | 86 | 292 | 0.9 | 1.7 | 0.00 | 0.00 | 0.00 | 100 | |
| 20260906172027 | 86 | 225 | 1.7 | 1.7 | 0.00 | 0.00 | 0.00 | 100 | |
| 20260906171027 | 86 | 202 | 0.9 | 1.7 | 0.00 | 0.00 | 0.00 | 100 | |
| 20260906170027 | 85 | 135 | 0.9 | 0.9 | 0.00 | 0.00 | 0.00 | 100 | |
| 20260906165027 | 86 | 112 | 0.9 | 0.9 | 0.00 | 0.00 | 0.00 | 100 | |
| 20260906164027 | 87 | 90 | 0.9 | 1.7 | 0.00 | 0.00 | 0.00 | 100 | |
| 20260906163027 | 87 | 180 | 0.0 | 0.9 | 0.00 | 0.00 | 0.00 | 100 | |
| 20260906162027 | 86 | 90 | 0.9 | 0.9 | 0.00 | 0.00 | 0.00 | 100 | |
| 20260906161027 | 85 | 180 | 0.0 | 0.9 | 0.00 | 0.00 | 0.00 | 100 | |
| 20260906160027 | 83 | 112 | 0.9 | 1.7 | 0.00 | 0.00 | 0.00 | 100 | |
| 20260906155027 | 81 | 45 | 0.9 | 0.9 | 0.00 | 0.00 | 0.00 | 100 | |
| 20260906154027 | 81 | 112 | 0.0 | 0.9 | 0.00 | 0.00 | 0.00 | 100 | |
| 20260906153027 | 81 | 90 | 0.0 | 0.9 | 0.00 | 0.00 | 0.00 | 100 | |
| 20260906152028 | 78 | 90 | 0.0 | 0.0 | 0.00 | 0.00 | 0.00 | 100 | |
| 20260906151028 | 74 | 112 | 0.0 | 0.9 | 0.00 | 0.00 | 0.00 | 100 | |
| 20260906150028 | 71 | 112 | 0.0 | 0.0 | 0.00 | 0.00 | 0.00 | 100 | |
| 20260906145028 | 69 | 112 | 0.0 | 0.9 | 0.00 | 0.00 | 0.00 | 100 | |
| 20260906144028 | 68 | 90 | 0.0 | 0.0 | 0.00 | 0.00 | 0.00 | 100 | |
| 20260906143028 | 68 | 90 | 0.9 | 2.6 | 0.00 | 0.00 | 0.00 | 100 | |
| 20260906142028 | 69 | 337 | 0.9 | 1.7 | 0.00 | 0.00 | 0.00 | 100 | |
| 20260906141408 | 74 | 90 | 0.9 | 1.7 | 0.00 | 0.00 | 0.00 | 100 | |
| 20260906141028 | 73 | 135 | 0.0 | 0.0 | 0.00 | 0.00 | 0.00 | 100 | |
| 20260906140028 | 74 | 90 | 0.9 | 1.7 | 0.00 | 0.00 | 0.00 | 100 | |
| 20260906135028 | 75 | 202 | 1.7 | 2.6 | 0.00 | 0.00 | 0.00 | 100 | |
| 20260906134028 | 75 | 202 | 1.7 | 2.6 | 0.00 | 0.00 | 0.00 | 100 | |
| 20260906133028 | 75 | 180 | 0.9 | 1.7 | 0.00 | 0.00 | 0.00 | 100 | |
| 20260906132028 | 75 | 180 | 1.7 | 1.7 | 0.00 | 0.00 | 0.00 | 100 | |
| 20260906131028 | 75 | 157 | 0.9 | 0.9 | 0.00 | 0.00 | 0.00 | 100 | |
| 20260906130028 | 76 | 90 | 0.0 | 0.0 | 0.00 | 0.00 | 0.00 | 100 | |
| 20260906125028 | 75 | 45 | 0.9 | 1.7 | 0.00 | 0.00 | 0.00 | 100 | |
| 20260906124028 | 74 | 180 | 3.5 | 4.3 | 0.00 | 0.00 | 0.00 | 100 | |
| 20260906123028 | 73 | 180 | 0.9 | 0.9 | 0.00 | 0.00 | 0.00 | 100 | |
| 20260906122028 | 72 | 135 | 0.0 | 0.9 | 0.00 | 0.00 | 0.00 | 100 | |
| 20260906121028 | 71 | 180 | 0.9 | 0.9 | 0.00 | 0.00 | 0.00 | 100 | |
| 20260906120028 | 71 | 90 | 0.0 | 0.0 | 0.00 | 0.00 | 0.00 | 100 | |
| 20260906115028 | 71 | 112 | 0.0 | 0.0 | 0.00 | 0.00 | 0.00 | 100 | |
| 20260906114028 | 71 | 337 | 0.9 | 0.9 | 0.00 | 0.00 | 0.00 | 100 | |
| 20260906113028 | 71 | 112 | 0.0 | 0.9 | 0.00 | 0.00 | 0.00 | 100 | |
| 20260906112028 | 70 | 90 | 0.0 | 0.0 | 0.00 | 0.00 | 0.00 | 100 | |
| 20260906111028 | 71 | 90 | 0.0 | 0.0 | 0.00 | 0.00 | 0.00 | 100 | |
| 20260906110028 | 71 | 90 | 0.0 | 0.0 | 0.00 | 0.00 | 0.00 | 100 | |
| 20260906105028 | 71 | 90 | 0.0 | 0.0 | 0.00 | 0.00 | 0.00 | 100 | |
| 20260906104028 | 71 | 90 | 0.0 | 0.0 | 0.00 | 0.00 | 0.00 | 100 | |
| 20260906103028 | 72 | 90 | 0.0 | 0.0 | 0.00 | 0.00 | 0.00 | 100 | |
| 20260906102028 | 73 | 90 | 0.0 | 0.0 | 0.00 | 0.00 | 0.00 | 100 | |
| 20260906101028 | 73 | 202 | 0.9 | 1.7 | 0.00 | 0.00 | 0.00 | 100 | |
| 20260906100028 | 73 | 157 | 0.0 | 1.7 | 0.00 | 0.00 | 0.00 | 100 | |
| 20260906095028 | 73 | 135 | 0.9 | 0.9 | 0.00 | 0.00 | 0.00 | 100 | |
| 20260906094028 | 73 | 157 | 0.9 | 0.9 | 0.00 | 0.00 | 0.00 | 100 | |
| 20260906093028 | 74 | 90 | 0.0 | 0.9 | 0.00 | 0.00 | 0.00 | 100 | |
| 20260906092028 | 74 | 180 | 0.9 | 2.6 | 0.00 | 0.00 | 0.00 | 100 | |
| 20260906091028 | 74 | 157 | 0.9 | 3.5 | 0.00 | 0.00 | 0.00 | 100 | |
| 20260906090028 | 74 | 202 | 1.7 | 3.5 | 0.00 | 0.00 | 0.00 | 100 | |
| 20260906085028 | 74 | 135 | 0.0 | 0.9 | 0.00 | 0.00 | 0.00 | 100 | |
| 20260906084028 | 74 | 135 | 0.0 | 0.9 | 0.00 | 0.00 | 0.00 | 100 | |
| 20260906083028 | 74 | 180 | 0.0 | 0.0 | 0.00 | 0.00 | 0.00 | 100 | |
| 20260906082028 | 74 | 225 | 0.9 | 0.9 | 0.00 | 0.00 | 0.00 | 100 | |
| 20260906081028 | 74 | 225 | 0.9 | 0.9 | 0.00 | 0.00 | 0.00 | 100 | |
| 20260906080029 | 74 | 225 | 1.7 | 1.7 | 0.00 | 0.00 | 0.00 | 100 | |
| 20260906075028 | 74 | 135 | 0.0 | 0.9 | 0.00 | 0.00 | 0.00 | 100 | |
| 20260906074028 | 74 | 90 | 0.0 | 2.6 | 0.00 | 0.00 | 0.00 | 100 | |
| 20260906073028 | 75 | 180 | 0.9 | 0.9 | 0.00 | 0.00 | 0.00 | 100 | |
| 20260906072028 | 75 | 180 | 0.0 | 0.0 | 0.00 | 0.00 | 0.00 | 100 | |
| 20260906071028 | 75 | 247 | 0.9 | 2.6 | 0.00 | 0.00 | 0.00 | 100 | |
| 20260906070028 | 75 | 180 | 0.9 | 1.7 | 0.00 | 0.00 | 0.00 | 100 | |
| 20260906065028 | 74 | 225 | 1.7 | 2.6 | 0.00 | 0.00 | 0.00 | 100 | |
| 20260906064029 | 74 | 337 | 0.9 | 0.9 | 0.00 | 0.00 | 0.00 | 100 | |
| 20260906063028 | 74 | 135 | 0.9 | 1.7 | 0.00 | 0.00 | 0.00 | 100 | |
| 20260906062028 | 74 | 315 | 1.7 | 1.7 | 0.00 | 0.00 | 0.00 | 100 | |
| 20260906061028 | 74 | 270 | 0.9 | 1.7 | 0.00 | 0.00 | 0.00 | 100 | |
| 20260906060028 | 73 | 315 | 1.7 | 1.7 | 0.00 | 0.00 | 0.00 | 100 | |
| 20260906055028 | 74 | 67 | 0.0 | 0.9 | 0.00 | 0.00 | 0.00 | 100 | |
| 20260906054028 | 74 | 315 | 0.9 | 0.9 | 0.00 | 0.00 | 0.00 | 100 | |
| 20260906053028 | 73 | 135 | 0.0 | 1.7 | 0.00 | 0.00 | 0.00 | 100 | |
| 20260906052028 | 73 | 90 | 0.0 | 0.0 | 0.00 | 0.00 | 0.00 | 100 | |
| 20260906051028 | 73 | 90 | 0.0 | 0.9 | 0.00 | 0.00 | 0.00 | 100 | |
| 20260906050028 | 74 | 90 | 0.0 | 0.0 | 0.00 | 0.00 | 0.00 | 100 | |
| 20260906045028 | 74 | 90 | 0.0 | 0.9 | 0.00 | 0.00 | 0.00 | 100 | |
| 20260906044028 | 74 | 90 | 0.0 | 0.0 | 0.00 | 0.00 | 0.00 | 100 | |
| 20260906043028 | 74 | 90 | 0.0 | 0.0 | 0.00 | 0.00 | 0.00 | 100 | |
| 20260906042028 | 75 | 90 | 0.0 | 0.0 | 0.00 | 0.00 | 0.00 | 100 | |
| 20260906041028 | 76 | 90 | 0.9 | 1.7 | 0.00 | 0.00 | 0.00 | 100 | |
| 20260906040028 | 76 | 90 | 0.0 | 0.0 | 0.00 | 0.00 | 0.00 | 100 | |
| 20260906035028 | 77 | 45 | 0.0 | 0.0 | 0.00 | 0.00 | 0.00 | 100 | |
| 20260906034028 | 77 | 135 | 0.0 | 0.0 | 0.00 | 0.00 | 0.00 | 100 | |
| 20260906033028 | 78 | 22 | 0.9 | 0.9 | 0.00 | 0.00 | 0.00 | 100 | |
| 20260906032028 | 79 | 90 | 0.0 | 0.9 | 0.00 | 0.00 | 0.00 | 100 | |
| 20260906031028 | 80 | 45 | 0.0 | 0.0 | 0.00 | 0.00 | 0.00 | 100 | |
| 20260906030028 | 80 | 202 | 0.9 | 1.7 | 0.00 | 0.00 | 0.00 | 100 | |
| 20260906025028 | 80 | 180 | 1.7 | 1.7 | 0.00 | 0.00 | 0.00 | 100 | |
| 20260906024029 | 80 | 202 | 0.9 | 1.7 | 0.00 | 0.00 | 0.00 | 100 | |
| 20260906023029 | 80 | 180 | 0.0 | 0.0 | 0.00 | 0.00 | 0.00 | 100 | |
| 20260906022029 | 81 | 337 | 0.0 | 0.0 | 0.00 | 0.00 | 0.00 | 100 | |
| 20260906021029 | 81 | 90 | 0.0 | 0.0 | 0.00 | 0.00 | 0.00 | 100 | |
| 20260906020029 | 82 | 225 | 0.9 | 1.7 | 0.00 | 0.00 | 0.00 | 100 | |
| 20260906015029 | 82 | 90 | 0.0 | 0.0 | 0.00 | 0.00 | 0.00 | 100 | |
| 20260906014029 | 82 | 315 | 0.9 | 0.9 | 0.00 | 0.00 | 0.00 | 100 | |
| 20260906012029 | 84 | 202 | 0.9 | 1.7 | 0.00 | 0.00 | 0.00 | 100 | |
| 20260906011029 | 85 | 180 | 0.9 | 1.7 | 0.00 | 0.00 | 0.00 | 100 | |
| 20260906010029 | 86 | 180 | 0.9 | 0.9 | 0.00 | 0.00 | 0.00 | 100 | |
| 20260906005029 | 86 | 225 | 0.9 | 2.6 | 0.00 | 0.00 | 0.00 | 100 | |
| 20260906004029 | 86 | 180 | 1.7 | 2.6 | 0.00 | 0.00 | 0.00 | 100 | |
| 20260906003029 | 87 | 225 | 1.7 | 3.5 | 0.00 | 0.00 | 0.00 | 100 | |
| 20260906002029 | 87 | 202 | 3.5 | 4.3 | 0.00 | 0.00 | 0.00 | 100 | |
| 20260906001029 | 88 | 225 | 3.5 | 3.5 | 0.00 | 0.00 | 0.00 | 100 | |
| 20260906000029 | 88 | 225 | 1.7 | 3.5 | 0.00 | 0.00 | 0.00 | 100 | |
| 20260905235029 | 88 | 135 | 0.9 | 1.7 | 0.00 | 0.00 | 0.00 | 100 | |
| 20260905234029 | 89 | 135 | 1.7 | 3.5 | 0.00 | 0.00 | 0.00 | 100 | |
| 20260905233029 | 89 | 180 | 1.7 | 3.5 | 0.00 | 0.00 | 0.00 | 100 | |
| 20260905232029 | 89 | 180 | 4.3 | 5.2 | 0.00 | 0.00 | 0.00 | 100 | |
| 20260905231029 | 90 | 180 | 3.5 | 6.1 | 0.00 | 0.00 | 0.00 | 100 | |
| 20260905230029 | 90 | 180 | 3.5 | 7.8 | 0.00 | 0.00 | 0.00 | 100 | |
| 20260905225029 | 90 | 180 | 2.6 | 3.5 | 0.00 | 0.00 | 0.00 | 100 | |
| 20260905224029 | 90 | 225 | 6.1 | 6.1 | 0.00 | 0.00 | 0.00 | 100 | |
| 20260905223029 | 90 | 180 | 3.5 | 3.5 | 0.00 | 0.00 | 0.00 | 100 | |
| 20260905222030 | 89 | 202 | 4.3 | 4.3 | 0.00 | 0.00 | 0.00 | 100 | |
| 20260905221029 | 89 | 202 | 4.3 | 7.0 | 0.00 | 0.00 | 0.00 | 100 | |
| 20260905220029 | 89 | 180 | 3.5 | 4.3 | 0.00 | 0.00 | 0.00 | 100 | |
| 20260905215030 | 89 | 337 | 1.7 | 4.3 | 0.00 | 0.00 | 0.00 | 100 | |
| 20260905214029 | 89 | 157 | 2.6 | 6.1 | 0.00 | 0.00 | 0.00 | 100 | |
| 20260905213030 | 89 | 135 | 0.9 | 3.5 | 0.00 | 0.00 | 0.00 | 100 | |
| 20260905212029 | 89 | 225 | 4.3 | 6.1 | 0.00 | 0.00 | 0.00 | 100 | |
| 20260905211029 | 91 | 225 | 3.5 | 5.2 | 0.00 | 0.00 | 0.00 | 100 | |
| 20260905210030 | 94 | 292 | 4.3 | 4.3 | 0.00 | 0.00 | 0.00 | 100 | |
| 20260905205030 | 97 | 225 | 2.6 | 3.5 | 0.00 | 0.00 | 0.00 | 100 | |
| 20260905204029 | 97 | 270 | 3.5 | 7.0 | 0.00 | 0.00 | 0.00 | 100 | |
| 20260905203029 | 97 | 0 | 1.7 | 3.5 | 0.00 | 0.00 | 0.00 | 100 | |
| 20260905202029 | 97 | 292 | 1.7 | 6.1 | 0.00 | 0.00 | 0.00 | 100 | |
| 20260905201029 | 98 | 292 | 3.5 | 3.5 | 0.00 | 0.00 | 0.00 | 100 | |
| 20260905200029 | 97 | 315 | 4.3 | 5.2 | 0.00 | 0.00 | 0.00 | 100 | |
| 20260905195029 | 97 | 315 | 1.7 | 4.3 | 0.00 | 0.00 | 0.00 | 100 | |
| 20260905194029 | 97 | 315 | 3.5 | 3.5 | 0.00 | 0.00 | 0.00 | 100 | |
| 20260905193029 | 99 | 337 | 1.7 | 4.3 | 0.00 | 0.00 | 0.00 | 100 | |
| 20260905192030 | 99 | 225 | 1.7 | 3.5 | 0.00 | 0.00 | 0.00 | 100 |